Time,TemperatureF,DewpointF,PressureIn,WindDirection,WindDirectionDegrees,WindSpeedMPH,WindSpeedGustMPH,Humidity,HourlyPrecipIn,Conditions,Clouds,dailyrainin,SoftwareType,DateUTC
2013-02-07 00:00:00,34.3,33.0,29.96,ESE,110,3.0,3.0,95,0.00,,SKC,0.00,VWS V14.01,2013-02-07 06:00:00,
2013-02-07 00:02:00,34.3,33.0,29.96,SE,124,2.0,3.0,95,0.00,,SKC,0.00,VWS V14.01,2013-02-07 06:02:00,
2013-02-07 00:07:00,34.3,33.0,29.96,ESE,121,3.0,3.0,95,0.00,,SKC,0.00,VWS V14.01,2013-02-07 06:07:00,
2013-02-07 00:12:00,34.3,33.0,29.96,ESE,121,3.0,4.0,95,0.00,,SKC,0.00,VWS V14.01,2013-02-07 06:12:00,
2013-02-07 00:17:00,34.3,33.0,29.96,ESE,115,3.0,4.0,95,0.00,,SKC,0.00,VWS V14.01,2013-02-07 06:17:00,
2013-02-07 00:22:00,34.3,33.0,29.96,SE,134,1.0,4.0,95,0.00,,SKC,0.00,VWS V14.01,2013-02-07 06:22:00,
2013-02-07 00:27:00,34.2,32.9,29.96,SE,132,2.0,4.0,95,0.00,,SKC,0.00,VWS V14.01,2013-02-07 06:27:00,
2013-02-07 00:30:00,34.1,32.8,29.96,SE,126,2.0,4.0,95,0.00,,SKC,0.00,VWS V14.01,2013-02-07 06:30:00,
2013-02-07 00:32:00,34.1,32.8,29.96,ESE,122,1.0,2.0,95,0.00,,SKC,0.00,VWS V14.01,2013-02-07 06:32:00,
2013-02-07 00:37:00,34.1,32.8,29.96,ESE,111,2.0,3.0,95,0.00,,SKC,0.00,VWS V14.01,2013-02-07 06:37:00,
2013-02-07 00:42:00,34.1,32.8,29.96,ESE,121,3.0,3.0,95,0.00,,SKC,0.00,VWS V14.01,2013-02-07 06:42:00,
2013-02-07 00:47:00,34.1,32.8,29.96,SE,129,3.0,3.0,95,0.00,,SKC,0.00,VWS V14.01,2013-02-07 06:47:00,
2013-02-07 00:52:00,34.1,32.8,29.96,ESE,115,1.0,4.0,95,0.00,,SKC,0.00,VWS V14.01,2013-02-07 06:52:00,
2013-02-07 00:56:00,34.0,32.7,29.95,ESE,120,1.0,4.0,95,0.00,,SKC,0.00,VWS V14.01,2013-02-07 06:56:00,
2013-02-07 01:00:00,34.0,32.7,29.95,ESE,113,1.0,4.0,95,0.00,,SKC,0.00,VWS V14.01,2013-02-07 07:00:00,
2013-02-07 01:02:00,34.0,32.7,29.95,ESE,111,1.0,2.0,95,0.00,,SKC,0.00,VWS V14.01,2013-02-07 07:02:00,
2013-02-07 01:06:00,34.0,32.7,29.95,SE,127,2.0,3.0,95,0.00,,SKC,0.00,VWS V14.01,2013-02-07 07:06:00,
2013-02-07 01:11:00,34.0,32.7,29.95,SE,125,2.0,4.0,95,0.00,,SKC,0.00,VWS V14.01,2013-02-07 07:11:00,
2013-02-07 01:16:00,34.0,32.7,29.95,SE,138,3.0,4.0,95,0.00,,SKC,0.00,VWS V14.01,2013-02-07 07:16:00,
2013-02-07 01:21:00,34.0,32.7,29.95,SE,126,2.0,4.0,95,0.00,,SKC,0.00,VWS V14.01,2013-02-07 07:21:00,
2013-02-07 01:26:00,33.9,32.6,29.95,SE,132,1.0,4.0,95,0.00,,SKC,0.00,VWS V14.01,2013-02-07 07:26:00,
2013-02-07 01:30:00,33.8,32.5,29.94,ESE,116,2.0,4.0,95,0.00,,SKC,0.00,VWS V14.01,2013-02-07 07:30:00,
2013-02-07 01:31:00,33.8,32.5,29.94,ESE,117,2.0,2.0,95,0.00,,SKC,0.00,VWS V14.01,2013-02-07 07:31:00,
2013-02-07 01:36:00,33.8,32.5,29.94,SE,124,2.0,3.0,95,0.00,,SKC,0.00,VWS V14.01,2013-02-07 07:36:00,
2013-02-07 01:41:00,33.8,32.5,29.94,ESE,115,1.0,3.0,95,0.00,,SKC,0.00,VWS V14.01,2013-02-07 07:41:00,
2013-02-07 01:46:00,33.8,32.5,29.94,ESE,122,1.0,3.0,95,0.00,,SKC,0.00,VWS V14.01,2013-02-07 07:46:00,
2013-02-07 01:51:00,33.8,32.5,29.94,ESE,104,1.0,3.0,95,0.00,,SKC,0.00,VWS V14.01,2013-02-07 07:51:00,
2013-02-07 01:56:00,33.9,32.6,29.94,ESE,108,1.0,3.0,95,0.00,,SKC,0.00,VWS V14.01,2013-02-07 07:56:00,
2013-02-07 02:00:00,33.9,32.6,29.94,ESE,102,0.0,3.0,95,0.00,,SKC,0.00,VWS V14.01,2013-02-07 08:00:00,
2013-02-07 02:01:00,33.9,32.6,29.94,ESE,102,1.0,1.0,95,0.00,,SKC,0.00,VWS V14.01,2013-02-07 08:01:00,
2013-02-07 02:06:00,33.9,32.6,29.94,East,91,0.0,1.0,95,0.00,,SKC,0.00,VWS V14.01,2013-02-07 08:06:00,
2013-02-07 02:11:00,33.8,32.5,29.95,East,90,0.0,1.0,95,0.00,,SKC,0.00,VWS V14.01,2013-02-07 08:11:00,
2013-02-07 02:16:00,33.7,32.4,29.95,East,91,0.0,1.0,95,0.00,,SKC,0.00,VWS V14.01,2013-02-07 08:16:00,
2013-02-07 02:21:00,33.7,32.4,29.95,East,91,0.0,1.0,95,0.00,,SKC,0.00,VWS V14.01,2013-02-07 08:21:00,
2013-02-07 02:26:00,33.7,32.4,29.95,East,90,0.0,1.0,95,0.00,,SKC,0.00,VWS V14.01,2013-02-07 08:26:00,
2013-02-07 02:30:00,33.7,32.4,29.95,East,91,0.0,1.0,95,0.00,,SKC,0.00,VWS V14.01,2013-02-07 08:30:00,
2013-02-07 02:31:00,33.6,32.3,29.95,East,91,0.0,0.0,95,0.00,,SKC,0.00,VWS V14.01,2013-02-07 08:31:00,
2013-02-07 02:36:00,33.5,32.2,29.95,East,91,0.0,0.0,95,0.00,,SKC,0.00,VWS V14.01,2013-02-07 08:36:00,
2013-02-07 02:41:00,33.3,32.0,29.95,East,90,0.0,1.0,95,0.00,,SKC,0.00,VWS V14.01,2013-02-07 08:41:00,
2013-02-07 02:46:00,33.2,31.9,29.95,East,89,0.0,1.0,95,0.00,,SKC,0.00,VWS V14.01,2013-02-07 08:46:00,
2013-02-07 02:51:00,33.2,31.9,29.94,East,89,0.0,1.0,95,0.00,,SKC,0.00,VWS V14.01,2013-02-07 08:51:00,
2013-02-07 02:56:00,33.1,31.8,29.95,East,89,0.0,1.0,95,0.00,,SKC,0.00,VWS V14.01,2013-02-07 08:56:00,
2013-02-07 03:00:00,33.0,31.7,29.94,East,89,0.0,1.0,95,0.00,,SKC,0.00,VWS V14.01,2013-02-07 09:00:00,
2013-02-07 03:01:00,32.9,31.6,29.94,East,89,0.0,0.0,95,0.00,,SKC,0.00,VWS V14.01,2013-02-07 09:01:00,
2013-02-07 03:06:00,32.8,31.5,29.94,East,89,0.0,0.0,95,0.00,,SKC,0.00,VWS V14.01,2013-02-07 09:06:00,
2013-02-07 03:11:00,32.7,31.4,29.94,East,89,0.0,0.0,95,0.00,,SKC,0.00,VWS V14.01,2013-02-07 09:11:00,
2013-02-07 03:16:00,32.5,31.2,29.94,East,89,0.0,0.0,95,0.00,,SKC,0.00,VWS V14.01,2013-02-07 09:16:00,
2013-02-07 03:21:00,32.5,31.5,29.94,East,89,0.0,0.0,96,0.00,,SKC,0.00,VWS V14.01,2013-02-07 09:21:00,
2013-02-07 03:26:00,32.5,31.5,29.94,East,89,0.0,0.0,96,0.00,,SKC,0.00,VWS V14.01,2013-02-07 09:26:00,
2013-02-07 03:30:00,32.5,31.5,29.94,East,89,0.0,0.0,96,0.00,,SKC,0.00,VWS V14.01,2013-02-07 09:30:00,
2013-02-07 03:31:00,32.4,31.4,29.94,East,89,0.0,0.0,96,0.00,,SKC,0.00,VWS V14.01,2013-02-07 09:31:00,
2013-02-07 03:36:00,32.4,31.4,29.94,East,89,0.0,0.0,96,0.00,,SKC,0.00,VWS V14.01,2013-02-07 09:36:00,
2013-02-07 03:41:00,32.4,31.4,29.94,East,89,0.0,0.0,96,0.00,,SKC,0.00,VWS V14.01,2013-02-07 09:41:00,
2013-02-07 03:46:00,32.3,31.3,29.93,East,89,0.0,0.0,96,0.00,,SKC,0.00,VWS V14.01,2013-02-07 09:46:00,
2013-02-07 03:51:00,32.3,31.3,29.93,East,89,0.0,1.0,96,0.00,,SKC,0.00,VWS V14.01,2013-02-07 09:51:00,
2013-02-07 03:56:00,32.3,31.3,29.93,East,89,0.0,1.0,96,0.00,,SKC,0.00,VWS V14.01,2013-02-07 09:56:00,
2013-02-07 04:00:00,32.3,31.3,29.93,ENE,70,1.0,1.0,96,0.00,,SKC,0.00,VWS V14.01,2013-02-07 10:00:00,
2013-02-07 04:01:00,32.4,31.4,29.93,NE,38,1.0,1.0,96,0.00,,SKC,0.00,VWS V14.01,2013-02-07 10:01:00,
2013-02-07 04:06:00,32.3,31.3,29.93,NE,36,0.0,1.0,96,0.00,,SKC,0.00,VWS V14.01,2013-02-07 10:06:00,
2013-02-07 04:11:00,32.2,31.2,29.93,NE,36,0.0,1.0,96,0.00,,SKC,0.00,VWS V14.01,2013-02-07 10:11:00,
2013-02-07 04:16:00,32.1,31.1,29.93,NE,36,1.0,1.0,96,0.00,,SKC,0.00,VWS V14.01,2013-02-07 10:16:00,
2013-02-07 04:21:00,32.0,31.0,29.93,NE,39,0.0,1.0,96,0.00,,SKC,0.00,VWS V14.01,2013-02-07 10:21:00,
2013-02-07 04:26:00,31.9,31.1,29.93,NE,52,1.0,2.0,97,0.00,,SKC,0.00,VWS V14.01,2013-02-07 10:26:00,
2013-02-07 04:30:00,31.8,30.8,29.93,NE,53,0.0,2.0,96,0.00,,SKC,0.00,VWS V14.01,2013-02-07 10:30:00,
2013-02-07 04:31:00,31.8,31.0,29.93,NE,52,0.0,1.0,97,0.00,,SKC,0.00,VWS V14.01,2013-02-07 10:31:00,
2013-02-07 04:36:00,31.7,30.7,29.93,NE,53,0.0,1.0,96,0.00,,SKC,0.00,VWS V14.01,2013-02-07 10:36:00,
2013-02-07 04:41:00,31.7,31.0,29.93,NE,53,0.0,1.0,97,0.00,,SKC,0.00,VWS V14.01,2013-02-07 10:41:00,
2013-02-07 04:46:00,31.8,31.0,29.93,NE,53,0.0,1.0,97,0.00,,SKC,0.00,VWS V14.01,2013-02-07 10:46:00,
2013-02-07 04:51:00,31.8,31.0,29.94,NE,53,0.0,1.0,97,0.00,,SKC,0.00,VWS V14.01,2013-02-07 10:51:00,
2013-02-07 04:56:00,31.8,31.0,29.94,NE,53,0.0,1.0,97,0.00,,SKC,0.00,VWS V14.01,2013-02-07 10:56:00,
2013-02-07 05:00:00,31.8,31.0,29.94,NE,53,0.0,1.0,97,0.00,,SKC,0.00,VWS V14.01,2013-02-07 11:00:00,
2013-02-07 05:01:00,31.8,31.0,29.94,NE,52,0.0,0.0,97,0.00,,SKC,0.00,VWS V14.01,2013-02-07 11:01:00,
2013-02-07 05:06:00,31.8,31.0,29.94,NE,52,0.0,1.0,97,0.00,,SKC,0.00,VWS V14.01,2013-02-07 11:06:00,
2013-02-07 05:11:00,31.8,31.0,29.94,North,4,2.0,2.0,97,0.00,,SKC,0.00,VWS V14.01,2013-02-07 11:11:00,
2013-02-07 05:16:00,31.8,31.0,29.94,NNW,342,0.0,2.0,97,0.00,,SKC,0.00,VWS V14.01,2013-02-07 11:16:00,
2013-02-07 05:21:00,31.7,31.0,29.94,NNW,341,0.0,2.0,97,0.00,,SKC,0.00,VWS V14.01,2013-02-07 11:21:00,
2013-02-07 05:26:00,31.7,31.0,29.94,NNW,341,0.0,2.0,97,0.00,,SKC,0.00,VWS V14.01,2013-02-07 11:26:00,
2013-02-07 05:30:00,31.7,31.0,29.94,NNW,341,0.0,2.0,97,0.00,,SKC,0.00,VWS V14.01,2013-02-07 11:30:00,
2013-02-07 05:31:00,31.7,31.0,29.94,NNW,342,0.0,0.0,97,0.00,,SKC,0.00,VWS V14.01,2013-02-07 11:31:00,
2013-02-07 05:36:00,31.7,31.0,29.94,NNW,341,0.0,0.0,97,0.00,,SKC,0.00,VWS V14.01,2013-02-07 11:36:00,
2013-02-07 05:41:00,31.6,30.9,29.94,NNW,342,0.0,1.0,97,0.00,,SKC,0.00,VWS V14.01,2013-02-07 11:41:00,
2013-02-07 05:46:00,31.5,30.8,29.93,NNW,341,0.0,1.0,97,0.00,,SKC,0.00,VWS V14.01,2013-02-07 11:46:00,
2013-02-07 05:51:00,31.4,30.6,29.93,NNW,341,0.0,1.0,97,0.00,,SKC,0.00,VWS V14.01,2013-02-07 11:51:00,
2013-02-07 05:56:00,31.4,30.6,29.93,NNW,341,0.0,1.0,97,0.00,,SKC,0.00,VWS V14.01,2013-02-07 11:56:00,
2013-02-07 06:00:00,31.4,30.6,29.94,NNW,342,0.0,1.0,97,0.00,,SKC,0.00,VWS V14.01,2013-02-07 12:00:00,
2013-02-07 06:01:00,31.4,30.6,29.94,NNW,342,0.0,1.0,97,0.00,,SKC,0.00,VWS V14.01,2013-02-07 12:01:00,
2013-02-07 06:06:00,31.4,30.6,29.94,NNW,341,0.0,1.0,97,0.00,,SKC,0.00,VWS V14.01,2013-02-07 12:06:00,
2013-02-07 06:11:00,31.4,30.6,29.94,NNW,341,1.0,1.0,97,0.00,,SKC,0.00,VWS V14.01,2013-02-07 12:11:00,
2013-02-07 06:16:00,31.4,30.6,29.94,NNW,341,0.0,1.0,97,0.00,,SKC,0.00,VWS V14.01,2013-02-07 12:16:00,
2013-02-07 06:21:00,31.4,30.6,29.94,NNW,341,0.0,1.0,97,0.00,,SKC,0.00,VWS V14.01,2013-02-07 12:21:00,
2013-02-07 06:26:00,31.4,30.6,29.94,NNW,341,1.0,1.0,97,0.00,,SKC,0.00,VWS V14.01,2013-02-07 12:26:00,
2013-02-07 06:30:00,31.4,30.6,29.94,NNW,342,1.0,1.0,97,0.00,,SKC,0.00,VWS V14.01,2013-02-07 12:30:00,
2013-02-07 06:31:00,31.4,30.6,29.94,NNW,341,1.0,1.0,97,0.00,,SKC,0.00,VWS V14.01,2013-02-07 12:31:00,
2013-02-07 06:36:00,31.3,30.5,29.95,NNW,339,1.0,2.0,97,0.00,,SKC,0.00,VWS V14.01,2013-02-07 12:36:00,
2013-02-07 06:41:00,31.3,30.5,29.95,NNW,329,2.0,2.0,97,0.00,,SKC,0.00,VWS V14.01,2013-02-07 12:41:00,
2013-02-07 06:46:00,31.3,30.5,29.95,North,349,2.0,4.0,97,0.00,,SKC,0.00,VWS V14.01,2013-02-07 12:46:00,
2013-02-07 06:51:00,31.2,30.5,29.95,NW,325,1.0,4.0,97,0.00,,SKC,0.00,VWS V14.01,2013-02-07 12:51:00,
2013-02-07 06:56:00,31.2,30.5,29.95,NNW,336,1.0,4.0,97,0.00,,SKC,0.00,VWS V14.01,2013-02-07 12:56:00,
2013-02-07 07:00:00,31.3,30.5,29.95,North,352,3.0,5.0,97,0.00,,SKC,0.00,VWS V14.01,2013-02-07 13:00:00,
2013-02-07 07:01:00,31.3,30.5,29.95,NNW,347,2.0,2.0,97,0.00,,SKC,0.00,VWS V14.01,2013-02-07 13:01:00,
2013-02-07 07:06:00,31.4,30.9,29.95,North,6,3.0,7.0,98,0.00,,SKC,0.00,VWS V14.01,2013-02-07 13:06:00,
2013-02-07 07:11:00,31.4,30.6,29.95,North,11,4.0,7.0,97,0.00,,SKC,0.00,VWS V14.01,2013-02-07 13:11:00,
2013-02-07 07:16:00,31.4,30.6,29.96,NNE,23,5.0,7.0,97,0.00,,SKC,0.00,VWS V14.01,2013-02-07 13:16:00,
2013-02-07 07:21:00,31.3,30.5,29.96,North,356,5.0,7.0,97,0.00,,SKC,0.00,VWS V14.01,2013-02-07 13:21:00,
2013-02-07 07:26:00,31.2,30.5,29.96,North,354,4.0,7.0,97,0.00,,SKC,0.00,VWS V14.01,2013-02-07 13:26:00,
2013-02-07 07:30:00,31.1,30.4,29.97,North,360,2.0,7.0,97,0.00,,SKC,0.00,VWS V14.01,2013-02-07 13:30:00,
2013-02-07 07:31:00,31.1,30.4,29.97,NNW,339,2.0,3.0,97,0.00,,SKC,0.00,VWS V14.01,2013-02-07 13:31:00,
2013-02-07 07:36:00,31.0,30.2,29.97,NNW,334,2.0,7.0,97,0.00,,SKC,0.00,VWS V14.01,2013-02-07 13:36:00,
2013-02-07 07:41:00,30.8,30.0,29.97,NNW,329,4.0,7.0,97,0.00,,SKC,0.00,VWS V14.01,2013-02-07 13:41:00,
2013-02-07 07:46:00,30.6,29.9,29.97,NNW,331,2.0,7.0,97,0.00,,SKC,0.00,VWS V14.01,2013-02-07 13:46:00,
2013-02-07 07:51:00,30.3,29.5,29.97,NNW,331,5.0,9.0,97,0.00,,SKC,0.00,VWS V14.01,2013-02-07 13:51:00,
2013-02-07 07:56:00,30.1,29.4,29.97,North,1,6.0,9.0,97,0.00,,SKC,0.00,VWS V14.01,2013-02-07 13:56:00,
2013-02-07 08:00:00,29.7,28.7,29.98,NW,321,2.0,9.0,96,0.00,,SKC,0.00,VWS V14.01,2013-02-07 14:00:00,
2013-02-07 08:01:00,29.7,28.7,29.98,North,351,4.0,4.0,96,0.00,,SKC,0.00,VWS V14.01,2013-02-07 14:01:00,
2013-02-07 08:06:00,29.2,28.2,29.98,North,8,6.0,8.0,96,0.00,,SKC,0.00,VWS V14.01,2013-02-07 14:06:00,
2013-02-07 08:11:00,28.6,27.6,29.98,North,355,5.0,9.0,96,0.00,,SKC,0.00,VWS V14.01,2013-02-07 14:11:00,
2013-02-07 08:16:00,28.2,27.2,29.98,NW,319,4.0,9.0,96,0.00,,SKC,0.00,VWS V14.01,2013-02-07 14:16:00,
2013-02-07 08:21:00,28.1,27.4,29.99,NNW,335,4.0,10.0,97,0.00,,SKC,0.00,VWS V14.01,2013-02-07 14:21:00,
2013-02-07 08:26:00,27.9,27.2,29.99,NNE,16,5.0,10.0,97,0.00,,SKC,0.00,VWS V14.01,2013-02-07 14:26:00,
2013-02-07 08:30:00,27.7,27.0,29.99,North,4,4.0,10.0,97,0.00,,SKC,0.00,VWS V14.01,2013-02-07 14:30:00,
2013-02-07 08:31:00,27.7,27.0,29.99,NNE,23,5.0,6.0,97,0.00,,SKC,0.00,VWS V14.01,2013-02-07 14:31:00,
2013-02-07 08:36:00,27.6,26.9,29.99,North,351,4.0,10.0,97,0.00,,SKC,0.00,VWS V14.01,2013-02-07 14:36:00,
2013-02-07 08:41:00,27.6,26.9,29.99,NNW,341,6.0,10.0,97,0.00,,SKC,0.00,VWS V14.01,2013-02-07 14:41:00,
2013-02-07 08:46:00,27.6,26.9,29.99,North,359,5.0,10.0,97,0.00,,SKC,0.00,VWS V14.01,2013-02-07 14:46:00,
2013-02-07 08:51:00,27.6,26.9,29.99,NNE,27,5.0,10.0,97,0.00,,SKC,0.00,VWS V14.01,2013-02-07 14:51:00,
2013-02-07 08:56:00,27.6,26.9,29.99,NW,321,3.0,11.0,97,0.00,,SKC,0.00,VWS V14.01,2013-02-07 14:56:00,
2013-02-07 09:00:00,27.5,26.8,29.99,North,352,5.0,11.0,97,0.00,,SKC,0.00,VWS V14.01,2013-02-07 15:00:00,
2013-02-07 09:01:00,27.5,26.8,30.00,NNW,340,5.0,7.0,97,0.00,,SKC,0.00,VWS V14.01,2013-02-07 15:01:00,
2013-02-07 09:06:00,27.5,26.8,30.00,NW,322,4.0,9.0,97,0.00,,SKC,0.00,VWS V14.01,2013-02-07 15:06:00,
2013-02-07 09:11:00,27.5,26.8,30.00,North,352,3.0,9.0,97,0.00,,SKC,0.00,VWS V14.01,2013-02-07 15:11:00,
2013-02-07 09:16:00,27.3,26.3,30.00,NNW,343,7.0,10.0,96,0.00,,SKC,0.00,VWS V14.01,2013-02-07 15:16:00,
2013-02-07 09:21:00,27.1,26.4,30.00,NW,326,4.0,13.0,97,0.00,,SKC,0.00,VWS V14.01,2013-02-07 15:21:00,
2013-02-07 09:26:00,27.1,26.4,30.00,NNW,335,5.0,13.0,97,0.00,,SKC,0.00,VWS V14.01,2013-02-07 15:26:00,
2013-02-07 09:30:00,27.1,26.4,30.00,NNW,346,5.0,13.0,97,0.00,,SKC,0.00,VWS V14.01,2013-02-07 15:30:00,
2013-02-07 09:31:00,27.1,26.4,30.00,North,356,5.0,9.0,97,0.00,,SKC,0.00,VWS V14.01,2013-02-07 15:31:00,
2013-02-07 09:36:00,27.1,26.4,30.00,NNW,340,7.0,12.0,97,0.00,,SKC,0.00,VWS V14.01,2013-02-07 15:36:00,
2013-02-07 09:41:00,27.2,26.5,30.00,North,356,4.0,12.0,97,0.00,,SKC,0.00,VWS V14.01,2013-02-07 15:41:00,
2013-02-07 09:46:00,27.2,26.5,30.00,NNW,336,6.0,12.0,97,0.00,,SKC,0.00,VWS V14.01,2013-02-07 15:46:00,
2013-02-07 09:51:00,27.1,26.4,30.00,NNE,21,6.0,13.0,97,0.00,,SKC,0.00,VWS V14.01,2013-02-07 15:51:00,
2013-02-07 09:56:00,27.1,26.4,30.00,North,351,4.0,13.0,97,0.00,,SKC,0.00,VWS V14.01,2013-02-07 15:56:00,
2013-02-07 10:00:00,27.1,26.4,30.00,North,354,6.0,13.0,97,0.00,,SKC,0.00,VWS V14.01,2013-02-07 16:00:00,
2013-02-07 10:01:00,27.1,26.4,30.00,NNW,345,11.0,13.0,97,0.00,,SKC,0.00,VWS V14.01,2013-02-07 16:01:00,
2013-02-07 10:06:00,27.1,26.4,30.00,North,5,6.0,13.0,97,0.00,,SKC,0.00,VWS V14.01,2013-02-07 16:06:00,
2013-02-07 10:11:00,27.3,26.6,30.00,NNW,340,8.0,13.0,97,0.00,,SKC,0.00,VWS V14.01,2013-02-07 16:11:00,
2013-02-07 10:16:00,27.4,26.7,30.01,North,358,6.0,13.0,97,0.00,,SKC,0.00,VWS V14.01,2013-02-07 16:16:00,
2013-02-07 10:21:00,27.4,26.7,30.01,North,9,8.0,13.0,97,0.00,,SKC,0.00,VWS V14.01,2013-02-07 16:21:00,
2013-02-07 10:26:00,27.3,26.6,30.01,NNW,343,3.0,13.0,97,0.00,,SKC,0.00,VWS V14.01,2013-02-07 16:26:00,
2013-02-07 10:30:00,27.3,26.6,30.01,NE,39,5.0,16.0,97,0.00,,SKC,0.00,VWS V14.01,2013-02-07 16:30:00,
2013-02-07 10:31:00,27.3,26.6,30.01,NNE,20,6.0,6.0,97,0.00,,SKC,0.00,VWS V14.01,2013-02-07 16:31:00,
2013-02-07 10:36:00,27.4,26.7,30.01,NNW,337,4.0,8.0,97,0.00,,SKC,0.00,VWS V14.01,2013-02-07 16:36:00,
2013-02-07 10:41:00,27.4,26.7,30.01,NNW,341,9.0,10.0,97,0.00,,SKC,0.00,VWS V14.01,2013-02-07 16:41:00,
2013-02-07 10:46:00,27.4,26.7,30.01,North,356,5.0,12.0,97,0.00,,SKC,0.00,VWS V14.01,2013-02-07 16:46:00,
2013-02-07 10:51:00,27.4,26.7,30.01,NE,41,6.0,13.0,97,0.00,,SKC,0.00,VWS V14.01,2013-02-07 16:51:00,
2013-02-07 10:56:00,27.5,26.8,30.02,North,352,4.0,14.0,97,0.00,,SKC,0.00,VWS V14.01,2013-02-07 16:56:00,
2013-02-07 11:00:00,27.6,26.9,30.01,NNE,20,5.0,17.0,97,0.00,,SKC,0.00,VWS V14.01,2013-02-07 17:00:00,
2013-02-07 11:01:00,27.6,26.9,30.01,NNW,346,9.0,10.0,97,0.00,,SKC,0.00,VWS V14.01,2013-02-07 17:01:00,
2013-02-07 11:06:00,27.7,27.0,30.02,NE,36,6.0,11.0,97,0.00,,SKC,0.00,VWS V14.01,2013-02-07 17:06:00,
2013-02-07 11:11:00,27.7,27.0,30.02,NNE,18,9.0,12.0,97,0.00,,SKC,0.00,VWS V14.01,2013-02-07 17:11:00,
2013-02-07 11:16:00,27.8,27.1,30.02,North,4,5.0,12.0,97,0.00,,SKC,0.00,VWS V14.01,2013-02-07 17:16:00,
2013-02-07 11:21:00,27.8,27.1,30.02,North,11,3.0,12.0,97,0.00,,SKC,0.00,VWS V14.01,2013-02-07 17:21:00,
2013-02-07 11:26:00,27.8,27.1,30.02,North,5,6.0,13.0,97,0.00,,SKC,0.00,VWS V14.01,2013-02-07 17:26:00,
2013-02-07 11:30:00,27.8,27.1,30.01,NE,39,4.0,13.0,97,0.00,,SKC,0.00,VWS V14.01,2013-02-07 17:30:00,
2013-02-07 11:31:00,27.8,27.1,30.01,North,360,10.0,10.0,97,0.00,,SKC,0.00,VWS V14.01,2013-02-07 17:31:00,
2013-02-07 11:36:00,27.8,27.1,30.02,NNE,21,7.0,13.0,97,0.00,,SKC,0.00,VWS V14.01,2013-02-07 17:36:00,
2013-02-07 11:41:00,27.8,27.1,30.02,North,11,5.0,13.0,97,0.00,,SKC,0.00,VWS V14.01,2013-02-07 17:41:00,
2013-02-07 11:46:00,27.8,27.1,30.01,North,1,7.0,13.0,97,0.00,,SKC,0.00,VWS V14.01,2013-02-07 17:46:00,
2013-02-07 11:51:00,27.9,27.2,30.01,NNE,15,5.0,13.0,97,0.00,,SKC,0.00,VWS V14.01,2013-02-07 17:51:00,
2013-02-07 11:56:00,27.9,27.2,30.01,North,352,4.0,13.0,97,0.00,,SKC,0.00,VWS V14.01,2013-02-07 17:56:00,
2013-02-07 12:00:00,27.9,27.2,30.01,NNW,336,5.0,13.0,97,0.00,,SKC,0.00,VWS V14.01,2013-02-07 18:00:00,
2013-02-07 12:01:00,27.9,27.2,30.01,North,4,8.0,11.0,97,0.00,,SKC,0.00,VWS V14.01,2013-02-07 18:01:00,
2013-02-07 12:06:00,27.9,27.2,30.01,North,11,6.0,11.0,97,0.00,,SKC,0.00,VWS V14.01,2013-02-07 18:06:00,
2013-02-07 12:11:00,27.9,27.2,30.01,NNW,335,2.0,11.0,97,0.00,,SKC,0.00,VWS V14.01,2013-02-07 18:11:00,
2013-02-07 12:16:00,27.8,27.1,30.01,NNE,32,4.0,11.0,97,0.00,,SKC,0.00,VWS V14.01,2013-02-07 18:16:00,
2013-02-07 12:21:00,27.9,27.2,30.01,North,5,9.0,11.0,97,0.00,,SKC,0.00,VWS V14.01,2013-02-07 18:21:00,
2013-02-07 12:26:00,27.9,27.2,30.01,NNE,25,6.0,11.0,97,0.00,,SKC,0.00,VWS V14.01,2013-02-07 18:26:00,
2013-02-07 12:30:00,27.8,27.1,30.01,NNW,345,5.0,11.0,97,0.00,,SKC,0.00,VWS V14.01,2013-02-07 18:30:00,
2013-02-07 12:31:00,27.8,27.1,30.01,NW,321,3.0,6.0,97,0.00,,SKC,0.00,VWS V14.01,2013-02-07 18:31:00,
2013-02-07 12:36:00,27.8,27.1,30.02,NNW,336,5.0,10.0,97,0.00,,SKC,0.00,VWS V14.01,2013-02-07 18:36:00,
2013-02-07 12:41:00,27.7,27.0,30.02,North,354,8.0,12.0,97,0.00,,SKC,0.00,VWS V14.01,2013-02-07 18:41:00,
2013-02-07 12:46:00,27.7,27.0,30.02,NNW,340,2.0,15.0,97,0.00,,SKC,0.00,VWS V14.01,2013-02-07 18:46:00,
2013-02-07 12:51:00,27.6,26.9,30.02,North,356,11.0,15.0,97,0.00,,SKC,0.00,VWS V14.01,2013-02-07 18:51:00,
2013-02-07 12:56:00,27.5,26.8,30.02,WNW,299,4.0,15.0,97,0.00,,SKC,0.00,VWS V14.01,2013-02-07 18:56:00,
2013-02-07 13:00:00,27.6,26.9,30.02,NNE,15,4.0,15.0,97,0.00,,SKC,0.00,VWS V14.01,2013-02-07 19:00:00,
2013-02-07 13:01:00,27.6,26.9,30.01,NNE,21,4.0,7.0,97,0.00,,SKC,0.00,VWS V14.01,2013-02-07 19:01:00,
2013-02-07 13:06:00,27.7,27.0,30.02,NNE,18,6.0,12.0,97,0.00,,SKC,0.00,VWS V14.01,2013-02-07 19:06:00,
2013-02-07 13:11:00,27.7,27.0,30.02,North,4,6.0,12.0,97,0.00,,SKC,0.00,VWS V14.01,2013-02-07 19:11:00,
2013-02-07 13:16:00,27.5,26.8,30.02,NNW,336,6.0,13.0,97,0.00,,SKC,0.00,VWS V14.01,2013-02-07 19:16:00,
2013-02-07 13:21:00,27.4,26.7,30.02,North,355,6.0,13.0,97,0.00,,SKC,0.00,VWS V14.01,2013-02-07 19:21:00,
2013-02-07 13:26:00,27.3,26.6,30.02,NNW,331,6.0,13.0,97,0.00,,SKC,0.00,VWS V14.01,2013-02-07 19:26:00,
2013-02-07 13:30:00,27.2,26.2,30.02,NNE,21,6.0,13.0,96,0.00,,SKC,0.00,VWS V14.01,2013-02-07 19:30:00,
2013-02-07 13:31:00,27.2,26.2,30.02,North,359,9.0,10.0,96,0.00,,SKC,0.00,VWS V14.01,2013-02-07 19:31:00,
2013-02-07 13:36:00,27.1,26.4,30.02,NE,46,7.0,10.0,97,0.00,,SKC,0.00,VWS V14.01,2013-02-07 19:36:00,
2013-02-07 13:41:00,27.1,26.4,30.02,NNE,20,6.0,14.0,97,0.00,,SKC,0.00,VWS V14.01,2013-02-07 19:41:00,
2013-02-07 13:46:00,27.2,26.5,30.01,NNE,31,8.0,14.0,97,0.00,,SKC,0.00,VWS V14.01,2013-02-07 19:46:00,
2013-02-07 13:51:00,27.2,26.5,30.02,North,4,6.0,14.0,97,0.00,,SKC,0.00,VWS V14.01,2013-02-07 19:51:00,
2013-02-07 13:56:00,27.1,26.1,30.02,NNW,340,9.0,14.0,96,0.00,,SKC,0.00,VWS V14.01,2013-02-07 19:56:00,
2013-02-07 14:00:00,27.1,26.4,30.02,NNE,18,13.0,15.0,97,0.00,,SKC,0.00,VWS V14.01,2013-02-07 20:00:00,
2013-02-07 14:01:00,27.1,26.4,30.02,NE,43,4.0,14.0,97,0.00,,SKC,0.00,VWS V14.01,2013-02-07 20:01:00,
2013-02-07 14:06:00,27.1,26.4,30.01,North,359,8.0,14.0,97,0.00,,SKC,0.00,VWS V14.01,2013-02-07 20:06:00,
2013-02-07 14:11:00,27.1,26.4,30.02,NNE,17,6.0,14.0,97,0.00,,SKC,0.00,VWS V14.01,2013-02-07 20:11:00,
2013-02-07 14:16:00,27.0,26.3,30.02,NNE,13,8.0,14.0,97,0.00,,SKC,0.00,VWS V14.01,2013-02-07 20:16:00,
2013-02-07 14:21:00,26.9,25.9,30.02,North,350,4.0,16.0,96,0.00,,SKC,0.00,VWS V14.01,2013-02-07 20:21:00,
2013-02-07 14:26:00,26.9,26.2,30.02,North,351,5.0,16.0,97,0.00,,SKC,0.00,VWS V14.01,2013-02-07 20:26:00,
2013-02-07 14:30:00,26.9,26.2,30.02,NNW,340,9.0,16.0,97,0.00,,SKC,0.00,VWS V14.01,2013-02-07 20:30:00,
2013-02-07 14:31:00,26.9,26.2,30.02,North,1,9.0,10.0,97,0.00,,SKC,0.00,VWS V14.01,2013-02-07 20:31:00,
2013-02-07 14:36:00,26.9,26.2,30.02,North,352,9.0,15.0,97,0.00,,SKC,0.00,VWS V14.01,2013-02-07 20:36:00,
2013-02-07 14:41:00,26.8,25.8,30.02,NNW,341,4.0,15.0,96,0.00,,SKC,0.00,VWS V14.01,2013-02-07 20:41:00,
2013-02-07 14:46:00,26.7,25.7,30.03,NNE,15,6.0,15.0,96,0.00,,SKC,0.00,VWS V14.01,2013-02-07 20:46:00,
2013-02-07 14:51:00,26.7,25.7,30.03,North,354,11.0,15.0,96,0.00,,SKC,0.00,VWS V14.01,2013-02-07 20:51:00,
2013-02-07 14:56:00,26.6,25.6,30.03,NNE,16,5.0,15.0,96,0.00,,SKC,0.00,VWS V14.01,2013-02-07 20:56:00,
2013-02-07 15:00:00,26.6,25.9,30.04,North,350,7.0,15.0,97,0.00,,SKC,0.00,VWS V14.01,2013-02-07 21:00:00,
2013-02-07 15:01:00,26.6,25.9,30.03,NE,36,3.0,12.0,97,0.00,,SKC,0.00,VWS V14.01,2013-02-07 21:01:00,
2013-02-07 15:06:00,26.6,25.9,30.03,NNW,336,3.0,12.0,97,0.00,,SKC,0.00,VWS V14.01,2013-02-07 21:06:00,
2013-02-07 15:11:00,26.7,26.0,30.03,NNW,329,2.0,12.0,97,0.00,,SKC,0.00,VWS V14.01,2013-02-07 21:11:00,
2013-02-07 15:16:00,26.7,26.0,30.03,North,359,16.0,16.0,97,0.00,,SKC,0.00,VWS V14.01,2013-02-07 21:16:00,
2013-02-07 15:21:00,26.6,25.6,30.03,NNE,18,12.0,16.0,96,0.00,,SKC,0.00,VWS V14.01,2013-02-07 21:21:00,
2013-02-07 15:26:00,26.6,25.9,30.04,NNW,348,7.0,16.0,97,0.00,,SKC,0.00,VWS V14.01,2013-02-07 21:26:00,
2013-02-07 15:30:00,26.6,25.9,30.04,NW,321,8.0,16.0,97,0.00,,SKC,0.00,VWS V14.01,2013-02-07 21:30:00,
2013-02-07 15:31:00,26.6,25.9,30.04,NE,34,3.0,10.0,97,0.00,,SKC,0.00,VWS V14.01,2013-02-07 21:31:00,
2013-02-07 15:36:00,26.7,26.0,30.04,NW,319,3.0,12.0,97,0.00,,SKC,0.00,VWS V14.01,2013-02-07 21:36:00,
2013-02-07 15:41:00,26.6,25.6,30.05,North,360,5.0,13.0,96,0.00,,SKC,0.00,VWS V14.01,2013-02-07 21:41:00,
2013-02-07 15:46:00,26.5,25.5,30.05,North,354,9.0,14.0,96,0.00,,SKC,0.00,VWS V14.01,2013-02-07 21:46:00,
2013-02-07 15:51:00,26.4,25.4,30.05,NNW,348,7.0,14.0,96,0.00,,SKC,0.00,VWS V14.01,2013-02-07 21:51:00,
2013-02-07 15:56:00,26.5,25.5,30.06,NNE,15,5.0,14.0,96,0.00,,SKC,0.00,VWS V14.01,2013-02-07 21:56:00,
2013-02-07 16:00:00,26.4,25.4,30.06,NNW,333,8.0,16.0,96,0.00,,SKC,0.00,VWS V14.01,2013-02-07 22:00:00,
2013-02-07 16:01:00,26.3,25.3,30.06,North,360,13.0,16.0,96,0.00,,SKC,0.00,VWS V14.01,2013-02-07 22:01:00,
2013-02-07 16:06:00,26.3,25.3,30.06,North,360,5.0,16.0,96,0.00,,SKC,0.00,VWS V14.01,2013-02-07 22:06:00,
2013-02-07 16:11:00,26.3,25.6,30.06,North,356,7.0,16.0,97,0.00,,SKC,0.00,VWS V14.01,2013-02-07 22:11:00,
2013-02-07 16:16:00,26.3,25.3,30.06,NNW,340,7.0,16.0,96,0.00,,SKC,0.00,VWS V14.01,2013-02-07 22:16:00,
2013-02-07 16:21:00,26.2,25.2,30.07,NNW,341,3.0,16.0,96,0.00,,SKC,0.00,VWS V14.01,2013-02-07 22:21:00,
2013-02-07 16:29:00,26.2,25.2,30.07,NNE,25,3.0,9.0,96,0.00,,SKC,0.00,VWS V14.01,2013-02-07 22:29:00,
2013-02-07 16:30:00,26.2,25.2,30.07,NNE,26,4.0,11.0,96,0.00,,SKC,0.00,VWS V14.01,2013-02-07 22:30:00,
2013-02-07 16:37:00,26.1,25.1,30.07,NNW,337,9.0,14.0,96,0.00,,SKC,0.00,VWS V14.01,2013-02-07 22:37:00,
2013-02-07 16:42:00,26.1,25.1,30.08,NNE,29,6.0,14.0,96,0.00,,SKC,0.00,VWS V14.01,2013-02-07 22:42:00,
2013-02-07 16:47:00,26.0,25.0,30.08,North,352,9.0,14.0,96,0.00,,SKC,0.00,VWS V14.01,2013-02-07 22:47:00,
2013-02-07 16:52:00,26.0,25.0,30.08,North,4,6.0,14.0,96,0.00,,SKC,0.00,VWS V14.01,2013-02-07 22:52:00,
2013-02-07 16:57:00,25.9,24.9,30.08,NNW,345,6.0,14.0,96,0.00,,SKC,0.00,VWS V14.01,2013-02-07 22:57:00,
2013-02-07 17:00:00,25.9,24.9,30.08,North,11,10.0,15.0,96,0.00,,SKC,0.00,VWS V14.01,2013-02-07 23:00:00,
2013-02-07 17:02:00,25.9,24.9,30.08,North,11,6.0,12.0,96,0.00,,SKC,0.00,VWS V14.01,2013-02-07 23:02:00,
2013-02-07 17:07:00,25.9,24.9,30.09,NE,38,6.0,14.0,96,0.00,,SKC,0.00,VWS V14.01,2013-02-07 23:07:00,
2013-02-07 17:12:00,25.8,24.8,30.09,NNW,342,4.0,14.0,96,0.00,,SKC,0.00,VWS V14.01,2013-02-07 23:12:00,
2013-02-07 17:17:00,25.8,24.8,30.09,NNW,342,13.0,14.0,96,0.00,,SKC,0.00,VWS V14.01,2013-02-07 23:17:00,
2013-02-07 17:22:00,25.8,24.8,30.09,NNE,25,8.0,16.0,96,0.00,,SKC,0.00,VWS V14.01,2013-02-07 23:22:00,
2013-02-07 17:27:00,25.7,24.7,30.10,NNE,25,5.0,16.0,96,0.00,,SKC,0.00,VWS V14.01,2013-02-07 23:27:00,
2013-02-07 17:30:00,25.7,24.7,30.10,North,5,7.0,16.0,96,0.00,,SKC,0.00,VWS V14.01,2013-02-07 23:30:00,
2013-02-07 17:32:00,25.7,24.7,30.10,NNW,328,7.0,10.0,96,0.00,,SKC,0.00,VWS V14.01,2013-02-07 23:32:00,
2013-02-07 17:37:00,25.7,24.7,30.10,NNE,16,12.0,12.0,96,0.00,,SKC,0.00,VWS V14.01,2013-02-07 23:37:00,
2013-02-07 17:42:00,25.6,24.6,30.11,North,9,5.0,13.0,96,0.00,,SKC,0.00,VWS V14.01,2013-02-07 23:42:00,
2013-02-07 17:47:00,25.7,24.7,30.11,NNE,16,6.0,14.0,96,0.00,,SKC,0.00,VWS V14.01,2013-02-07 23:47:00,
2013-02-07 17:52:00,25.7,24.7,30.11,NW,319,4.0,15.0,96,0.00,,SKC,0.00,VWS V14.01,2013-02-07 23:52:00,
2013-02-07 17:57:00,25.7,24.7,30.11,North,6,9.0,15.0,96,0.00,,SKC,0.00,VWS V14.01,2013-02-07 23:57:00,
2013-02-07 18:00:00,25.7,24.7,30.11,NNW,328,5.0,15.0,96,0.00,,SKC,0.00,VWS V14.01,2013-02-08 00:00:00,
2013-02-07 18:02:00,25.6,24.6,30.12,NNW,339,8.0,9.0,96,0.00,,SKC,0.00,VWS V14.01,2013-02-08 00:02:00,
2013-02-07 18:07:00,25.7,24.7,30.12,NNE,20,8.0,13.0,96,0.00,,SKC,0.00,VWS V14.01,2013-02-08 00:07:00,
2013-02-07 18:12:00,25.6,24.6,30.12,NNE,22,7.0,13.0,96,0.00,,SKC,0.00,VWS V14.01,2013-02-08 00:12:00,
2013-02-07 18:17:00,25.7,24.7,30.13,NNE,20,8.0,16.0,96,0.00,,SKC,0.00,VWS V14.01,2013-02-08 00:17:00,
2013-02-07 18:22:00,25.7,24.7,30.13,North,349,6.0,16.0,96,0.00,,SKC,0.00,VWS V14.01,2013-02-08 00:22:00,
2013-02-07 18:27:00,25.7,24.7,30.13,NNW,328,4.0,16.0,96,0.00,,SKC,0.00,VWS V14.01,2013-02-08 00:27:00,
2013-02-07 18:30:00,25.7,24.7,30.13,NNW,343,3.0,16.0,96,0.00,,SKC,0.00,VWS V14.01,2013-02-08 00:30:00,
2013-02-07 18:32:00,25.7,24.7,30.14,North,4,5.0,7.0,96,0.00,,SKC,0.00,VWS V14.01,2013-02-08 00:32:00,
2013-02-07 18:37:00,25.7,24.5,30.14,NW,316,7.0,14.0,95,0.00,,SKC,0.00,VWS V14.01,2013-02-08 00:37:00,
2013-02-07 18:42:00,25.7,24.5,30.14,NW,326,8.0,14.0,95,0.00,,SKC,0.00,VWS V14.01,2013-02-08 00:42:00,
2013-02-07 18:47:00,25.7,24.5,30.15,NW,325,6.0,14.0,95,0.00,,SKC,0.00,VWS V14.01,2013-02-08 00:47:00,
2013-02-07 18:52:00,25.6,24.4,30.15,North,356,7.0,14.0,95,0.00,,SKC,0.00,VWS V14.01,2013-02-08 00:52:00,
2013-02-07 18:57:00,25.6,24.4,30.15,North,4,7.0,14.0,95,0.00,,SKC,0.00,VWS V14.01,2013-02-08 00:57:00,
2013-02-07 19:00:00,25.6,24.4,30.15,NNW,341,6.0,14.0,95,0.00,,SKC,0.00,VWS V14.01,2013-02-08 01:00:00,
2013-02-07 19:02:00,25.6,24.4,30.15,NNW,341,4.0,11.0,95,0.00,,SKC,0.00,VWS V14.01,2013-02-08 01:02:00,
2013-02-07 19:07:00,25.6,24.4,30.15,North,3,3.0,11.0,95,0.00,,SKC,0.00,VWS V14.01,2013-02-08 01:07:00,
2013-02-07 19:12:00,25.6,24.4,30.15,North,354,6.0,15.0,95,0.00,,SKC,0.00,VWS V14.01,2013-02-08 01:12:00,
2013-02-07 19:17:00,25.6,24.4,30.15,North,6,7.0,15.0,95,0.00,,SKC,0.00,VWS V14.01,2013-02-08 01:17:00,
2013-02-07 19:22:00,25.6,24.4,30.16,NNE,13,6.0,15.0,95,0.00,,SKC,0.00,VWS V14.01,2013-02-08 01:22:00,
2013-02-07 19:27:00,25.6,24.4,30.16,North,350,8.0,15.0,95,0.00,,SKC,0.00,VWS V14.01,2013-02-08 01:27:00,
2013-02-07 19:30:00,25.6,24.4,30.16,NNW,327,4.0,18.0,95,0.00,,SKC,0.00,VWS V14.01,2013-02-08 01:30:00,
2013-02-07 19:32:00,25.6,24.1,30.16,North,1,7.0,10.0,94,0.00,,SKC,0.00,VWS V14.01,2013-02-08 01:32:00,
2013-02-07 19:37:00,25.6,24.1,30.16,NNE,23,5.0,15.0,94,0.00,,SKC,0.00,VWS V14.01,2013-02-08 01:37:00,
2013-02-07 19:42:00,25.6,24.1,30.16,North,349,8.0,15.0,94,0.00,,SKC,0.00,VWS V14.01,2013-02-08 01:42:00,
2013-02-07 19:47:00,25.6,24.1,30.16,NNW,336,7.0,15.0,94,0.00,,SKC,0.00,VWS V14.01,2013-02-08 01:47:00,
2013-02-07 19:52:00,25.5,24.0,30.16,NNW,339,6.0,15.0,94,0.00,,SKC,0.00,VWS V14.01,2013-02-08 01:52:00,
2013-02-07 19:57:00,25.5,24.0,30.16,North,352,5.0,15.0,94,0.00,,SKC,0.00,VWS V14.01,2013-02-08 01:57:00,
2013-02-07 20:00:00,25.5,24.0,30.16,NNW,343,9.0,15.0,94,0.00,,SKC,0.00,VWS V14.01,2013-02-08 02:00:00,
2013-02-07 20:02:00,25.5,24.0,30.16,NNE,13,5.0,11.0,94,0.00,,SKC,0.00,VWS V14.01,2013-02-08 02:02:00,
2013-02-07 20:07:00,25.5,24.0,30.16,NNE,16,8.0,17.0,94,0.00,,SKC,0.00,VWS V14.01,2013-02-08 02:07:00,
2013-02-07 20:12:00,25.5,24.0,30.16,NNW,328,3.0,17.0,94,0.00,,SKC,0.00,VWS V14.01,2013-02-08 02:12:00,
2013-02-07 20:17:00,25.5,24.0,30.17,NNW,342,7.0,17.0,94,0.00,,SKC,0.00,VWS V14.01,2013-02-08 02:17:00,
2013-02-07 20:22:00,25.5,23.8,30.17,NNW,341,5.0,17.0,93,0.00,,SKC,0.00,VWS V14.01,2013-02-08 02:22:00,
2013-02-07 20:27:00,25.6,23.9,30.16,NE,36,3.0,17.0,93,0.00,,SKC,0.00,VWS V14.01,2013-02-08 02:27:00,
2013-02-07 20:30:00,25.6,23.9,30.17,NNE,17,6.0,17.0,93,0.00,,SKC,0.00,VWS V14.01,2013-02-08 02:30:00,
2013-02-07 20:32:00,25.6,23.9,30.17,North,355,5.0,6.0,93,0.00,,SKC,0.00,VWS V14.01,2013-02-08 02:32:00,
2013-02-07 20:37:00,25.6,23.6,30.17,NNE,15,7.0,9.0,92,0.00,,SKC,0.00,VWS V14.01,2013-02-08 02:37:00,
2013-02-07 20:42:00,25.6,23.3,30.17,North,5,6.0,16.0,91,0.00,,SKC,0.00,VWS V14.01,2013-02-08 02:42:00,
2013-02-07 20:47:00,25.6,23.3,30.17,NNE,21,6.0,16.0,91,0.00,,SKC,0.00,VWS V14.01,2013-02-08 02:47:00,
2013-02-07 20:52:00,25.6,23.3,30.17,NE,56,2.0,16.0,91,0.00,,SKC,0.00,VWS V14.01,2013-02-08 02:52:00,
2013-02-07 20:57:00,25.6,23.3,30.18,North,8,6.0,16.0,91,0.00,,SKC,0.00,VWS V14.01,2013-02-08 02:57:00,
2013-02-07 21:00:00,25.6,23.3,30.18,North,349,6.0,16.0,91,0.00,,SKC,0.00,VWS V14.01,2013-02-08 03:00:00,
2013-02-07 21:02:00,25.6,23.3,30.18,NNE,20,3.0,9.0,91,0.00,,SKC,0.00,VWS V14.01,2013-02-08 03:02:00,
2013-02-07 21:07:00,25.5,23.0,30.18,North,350,6.0,11.0,90,0.00,,SKC,0.00,VWS V14.01,2013-02-08 03:07:00,
2013-02-07 21:12:00,25.4,22.9,30.18,NNW,346,7.0,11.0,90,0.00,,SKC,0.00,VWS V14.01,2013-02-08 03:12:00,
2013-02-07 21:17:00,25.4,22.9,30.18,North,8,8.0,12.0,90,0.00,,SKC,0.00,VWS V14.01,2013-02-08 03:17:00,
2013-02-07 21:22:00,25.3,22.8,30.18,North,354,4.0,12.0,90,0.00,,SKC,0.00,VWS V14.01,2013-02-08 03:22:00,
2013-02-07 21:27:00,25.2,22.7,30.19,NNE,21,6.0,12.0,90,0.00,,SKC,0.00,VWS V14.01,2013-02-08 03:27:00,
2013-02-07 21:30:00,25.3,22.8,30.19,NNE,27,9.0,12.0,90,0.00,,SKC,0.00,VWS V14.01,2013-02-08 03:30:00,
2013-02-07 21:32:00,25.2,22.7,30.19,NNE,20,8.0,11.0,90,0.00,,SKC,0.00,VWS V14.01,2013-02-08 03:32:00,
2013-02-07 21:37:00,25.2,22.4,30.19,NNE,31,2.0,11.0,89,0.00,,SKC,0.00,VWS V14.01,2013-02-08 03:37:00,
2013-02-07 21:42:00,25.1,22.6,30.19,North,11,2.0,12.0,90,0.00,,SKC,0.00,VWS V14.01,2013-02-08 03:42:00,
2013-02-07 21:47:00,25.1,22.6,30.19,North,5,5.0,12.0,90,0.00,,SKC,0.00,VWS V14.01,2013-02-08 03:47:00,
2013-02-07 21:52:00,25.1,22.6,30.19,NNW,338,5.0,12.0,90,0.00,,SKC,0.00,VWS V14.01,2013-02-08 03:52:00,
2013-02-07 21:57:00,25.1,22.6,30.20,North,358,3.0,12.0,90,0.00,,SKC,0.00,VWS V14.01,2013-02-08 03:57:00,
2013-02-07 22:00:00,25.1,22.6,30.20,NNW,344,2.0,12.0,90,0.00,,SKC,0.00,VWS V14.01,2013-02-08 04:00:00,
2013-02-07 22:03:00,25.1,22.6,30.20,North,7,4.0,4.0,90,0.00,,SKC,0.00,VWS V14.01,2013-02-08 04:03:00,
2013-02-07 22:08:00,25.1,22.6,30.20,NNE,26,4.0,6.0,90,0.00,,SKC,0.00,VWS V14.01,2013-02-08 04:08:00,
2013-02-07 22:13:00,25.0,22.5,30.20,North,11,2.0,6.0,90,0.00,,SKC,0.00,VWS V14.01,2013-02-08 04:13:00,
2013-02-07 22:18:00,25.0,22.8,30.20,NNW,341,2.0,6.0,91,0.00,,SKC,0.00,VWS V14.01,2013-02-08 04:18:00,
2013-02-07 22:23:00,25.0,22.8,30.20,North,5,1.0,6.0,91,0.00,,SKC,0.00,VWS V14.01,2013-02-08 04:23:00,
2013-02-07 22:28:00,24.9,22.6,30.20,NNW,327,6.0,8.0,91,0.00,,SKC,0.00,VWS V14.01,2013-02-08 04:28:00,
2013-02-07 22:30:00,24.9,22.4,30.20,ENE,61,6.0,9.0,90,0.00,,SKC,0.00,VWS V14.01,2013-02-08 04:30:00,
2013-02-07 22:33:00,24.9,22.4,30.20,North,356,4.0,8.0,90,0.00,,SKC,0.00,VWS V14.01,2013-02-08 04:33:00,
2013-02-07 22:38:00,24.8,22.3,30.20,North,358,6.0,12.0,90,0.00,,SKC,0.00,VWS V14.01,2013-02-08 04:38:00,
2013-02-07 22:43:00,24.8,22.3,30.20,North,356,4.0,12.0,90,0.00,,SKC,0.00,VWS V14.01,2013-02-08 04:43:00,
2013-02-07 22:48:00,24.8,22.3,30.21,North,351,7.0,12.0,90,0.00,,SKC,0.00,VWS V14.01,2013-02-08 04:48:00,
2013-02-07 22:53:00,24.7,22.2,30.21,North,351,3.0,12.0,90,0.00,,SKC,0.00,VWS V14.01,2013-02-08 04:53:00,
2013-02-07 22:58:00,24.6,22.1,30.21,NW,319,5.0,12.0,90,0.00,,SKC,0.00,VWS V14.01,2013-02-08 04:58:00,
2013-02-07 23:00:00,24.6,22.1,30.21,NNW,335,2.0,12.0,90,0.00,,SKC,0.00,VWS V14.01,2013-02-08 05:00:00,
2013-02-07 23:05:00,24.4,21.9,30.21,North,11,4.0,10.0,90,0.00,,SKC,0.00,VWS V14.01,2013-02-08 05:05:00,
2013-02-07 23:10:00,24.4,21.9,30.22,NNW,339,3.0,10.0,90,0.00,,SKC,0.00,VWS V14.01,2013-02-08 05:10:00,
2013-02-07 23:15:00,24.3,21.8,30.22,North,11,8.0,12.0,90,0.00,,SKC,0.00,VWS V14.01,2013-02-08 05:15:00,
2013-02-07 23:20:00,24.2,21.7,30.22,North,354,6.0,12.0,90,0.00,,SKC,0.00,VWS V14.01,2013-02-08 05:20:00,
2013-02-07 23:25:00,24.1,21.6,30.22,NE,36,2.0,12.0,90,0.00,,SKC,0.00,VWS V14.01,2013-02-08 05:25:00,
2013-02-07 23:30:00,24.0,21.5,30.22,NNW,337,2.0,12.0,90,0.00,,SKC,0.00,VWS V14.01,2013-02-08 05:30:00,
2013-02-07 23:35:00,23.8,21.3,30.22,NNW,339,3.0,6.0,90,0.00,,SKC,0.00,VWS V14.01,2013-02-08 05:35:00,
2013-02-07 23:40:00,23.7,21.2,30.22,NNE,21,3.0,6.0,90,0.00,,SKC,0.00,VWS V14.01,2013-02-08 05:40:00,
2013-02-07 23:45:00,23.6,21.1,30.22,NNW,348,4.0,7.0,90,0.00,,SKC,0.00,VWS V14.01,2013-02-08 05:45:00,
2013-02-07 23:50:00,23.5,21.3,30.22,North,9,2.0,7.0,91,0.00,,SKC,0.00,VWS V14.01,2013-02-08 05:50:00,
2013-02-07 23:55:00,23.4,21.2,30.22,North,9,2.0,7.0,91,0.00,,SKC,0.00,VWS V14.01,2013-02-08 05:55:00,